Year,Month,Day,Hour,Minute,Value (Times are PST for temperature in C)
2015,06,25,00,00,17.10
2015,06,25,00,01,17.10
2015,06,25,00,02,17.10
2015,06,25,00,03,17.10
2015,06,25,00,04,17.10
2015,06,25,00,05,17.10
2015,06,25,00,06,17.10
2015,06,25,00,07,17.10
2015,06,25,00,08,17.10
2015,06,25,00,09,17.10
2015,06,25,00,10,17.10
2015,06,25,00,11,17.10
2015,06,25,00,12,17.10
2015,06,25,00,13,17.10
2015,06,25,00,14,17.10
2015,06,25,00,15,17.00
2015,06,25,00,16,17.00
2015,06,25,00,17,17.00
2015,06,25,00,18,17.00
2015,06,25,00,19,17.00
2015,06,25,00,20,17.00
2015,06,25,00,21,17.00
2015,06,25,00,22,17.00
2015,06,25,00,23,17.00
2015,06,25,00,24,17.00
2015,06,25,00,25,17.00
2015,06,25,00,26,16.90
2015,06,25,00,27,16.90
2015,06,25,00,28,16.90
2015,06,25,00,29,16.90
2015,06,25,00,30,16.90
2015,06,25,00,31,16.90
2015,06,25,00,32,16.90
2015,06,25,00,33,16.90
2015,06,25,00,34,16.90
2015,06,25,00,35,16.90
2015,06,25,00,36,16.90
2015,06,25,00,37,16.90
2015,06,25,00,38,16.90
2015,06,25,00,39,16.80
2015,06,25,00,40,16.80
2015,06,25,00,41,16.80
2015,06,25,00,42,16.80
2015,06,25,00,43,16.80
2015,06,25,00,44,16.80
2015,06,25,00,45,16.80
2015,06,25,00,46,16.80
2015,06,25,00,47,16.80
2015,06,25,00,48,16.80
2015,06,25,00,49,16.80
2015,06,25,00,50,16.80
2015,06,25,00,51,16.80
2015,06,25,00,52,16.80
2015,06,25,00,53,16.80
2015,06,25,00,54,16.80
2015,06,25,00,55,16.80
2015,06,25,00,56,16.80
2015,06,25,00,57,16.80
2015,06,25,00,58,16.80
2015,06,25,00,59,16.80
2015,06,25,01,00,16.80
2015,06,25,01,01,16.80
2015,06,25,01,02,16.80
2015,06,25,01,03,16.80
2015,06,25,01,04,16.80
2015,06,25,01,05,16.80
2015,06,25,01,06,16.80
2015,06,25,01,07,16.80
2015,06,25,01,08,16.80
2015,06,25,01,09,16.80
2015,06,25,01,10,16.80
2015,06,25,01,11,16.80
2015,06,25,01,12,16.80
2015,06,25,01,13,16.80
2015,06,25,01,14,16.80
2015,06,25,01,15,16.80
2015,06,25,01,16,16.80
2015,06,25,01,17,16.80
2015,06,25,01,18,16.80
2015,06,25,01,19,16.80
2015,06,25,01,20,16.80
2015,06,25,01,21,16.80
2015,06,25,01,22,16.80
2015,06,25,01,23,16.80
2015,06,25,01,24,16.80
2015,06,25,01,25,16.80
2015,06,25,01,26,16.80
2015,06,25,01,27,16.80
2015,06,25,01,28,16.70
2015,06,25,01,29,16.70
2015,06,25,01,30,16.80
2015,06,25,01,31,16.70
2015,06,25,01,32,16.70
2015,06,25,01,33,16.70
2015,06,25,01,34,16.70
2015,06,25,01,35,16.70
2015,06,25,01,36,16.70
2015,06,25,01,37,16.70
2015,06,25,01,38,16.70
2015,06,25,01,39,16.70
2015,06,25,01,40,16.70
2015,06,25,01,41,16.70
2015,06,25,01,42,16.70
2015,06,25,01,43,16.70
2015,06,25,01,44,16.70
2015,06,25,01,45,16.70
2015,06,25,01,46,16.70
2015,06,25,01,47,16.70
2015,06,25,01,48,16.70
2015,06,25,01,49,16.70
2015,06,25,01,50,16.70
2015,06,25,01,51,16.70
2015,06,25,01,52,16.70
2015,06,25,01,53,16.70
2015,06,25,01,54,16.70
2015,06,25,01,55,16.70
2015,06,25,01,56,16.70
2015,06,25,01,57,16.70
2015,06,25,01,58,16.70
2015,06,25,01,59,16.70
2015,06,25,02,00,16.70
2015,06,25,02,01,16.70
2015,06,25,02,02,16.70
2015,06,25,02,03,16.70
2015,06,25,02,04,16.70
2015,06,25,02,05,16.70
2015,06,25,02,06,16.70
2015,06,25,02,07,16.70
2015,06,25,02,08,16.70
2015,06,25,02,09,16.70
2015,06,25,02,10,16.70
2015,06,25,02,11,16.70
2015,06,25,02,12,16.70
2015,06,25,02,13,16.60
2015,06,25,02,14,16.70
2015,06,25,02,15,16.60
2015,06,25,02,16,16.70
2015,06,25,02,17,16.70
2015,06,25,02,18,16.70
2015,06,25,02,19,16.70
2015,06,25,02,20,16.70
2015,06,25,02,21,16.70
2015,06,25,02,22,16.70
2015,06,25,02,23,16.70
2015,06,25,02,24,16.70
2015,06,25,02,25,16.70
2015,06,25,02,26,16.70
2015,06,25,02,27,16.70
2015,06,25,02,28,16.70
2015,06,25,02,29,16.70
2015,06,25,02,30,16.70
2015,06,25,02,31,16.70
2015,06,25,02,32,16.70
2015,06,25,02,33,16.70
2015,06,25,02,34,16.70
2015,06,25,02,35,16.70
2015,06,25,02,36,16.70
2015,06,25,02,37,16.70
2015,06,25,02,38,16.70
2015,06,25,02,39,16.70
2015,06,25,02,40,16.70
2015,06,25,02,41,16.70
2015,06,25,02,42,16.70
2015,06,25,02,43,16.70
2015,06,25,02,44,16.70
2015,06,25,02,45,16.70
2015,06,25,02,46,16.70
2015,06,25,02,47,16.70
2015,06,25,02,48,16.70
2015,06,25,02,49,16.70
2015,06,25,02,50,16.70
2015,06,25,02,51,16.70
2015,06,25,02,52,16.70
2015,06,25,02,53,16.70
2015,06,25,02,54,16.70
2015,06,25,02,55,16.70
2015,06,25,02,56,16.70
2015,06,25,02,57,16.70
2015,06,25,02,58,16.70
2015,06,25,02,59,16.70
2015,06,25,03,00,16.70
2015,06,25,03,01,16.70
2015,06,25,03,02,16.70
2015,06,25,03,03,16.70
2015,06,25,03,04,16.70
2015,06,25,03,05,16.60
2015,06,25,03,06,16.60
2015,06,25,03,07,16.60
2015,06,25,03,08,16.60
2015,06,25,03,09,16.60
2015,06,25,03,10,16.60
2015,06,25,03,11,16.60
2015,06,25,03,12,16.60
2015,06,25,03,13,16.50
2015,06,25,03,14,16.50
2015,06,25,03,15,16.50
2015,06,25,03,16,16.50
2015,06,25,03,17,16.50
2015,06,25,03,18,16.50
2015,06,25,03,19,16.50
2015,06,25,03,20,16.50
2015,06,25,03,21,16.50
2015,06,25,03,22,16.50
2015,06,25,03,23,16.50
2015,06,25,03,24,16.50
2015,06,25,03,25,16.50
2015,06,25,03,26,16.50
2015,06,25,03,27,16.50
2015,06,25,03,28,16.50
2015,06,25,03,29,16.50
2015,06,25,03,30,16.40
2015,06,25,03,31,16.50
2015,06,25,03,32,16.40
2015,06,25,03,33,16.40
2015,06,25,03,34,16.40
2015,06,25,03,35,16.50
2015,06,25,03,36,16.40
2015,06,25,03,37,16.40
2015,06,25,03,38,16.40
2015,06,25,03,39,16.40
2015,06,25,03,40,16.40
2015,06,25,03,41,16.40
2015,06,25,03,42,16.40
2015,06,25,03,43,16.40
2015,06,25,03,44,16.40
2015,06,25,03,45,16.40
2015,06,25,03,46,16.40
2015,06,25,03,47,16.40
2015,06,25,03,48,16.40
2015,06,25,03,49,16.40
2015,06,25,03,50,16.30
2015,06,25,03,51,16.30
2015,06,25,03,52,16.30
2015,06,25,03,53,16.30
2015,06,25,03,54,16.30
2015,06,25,03,55,16.30
2015,06,25,03,56,16.30
2015,06,25,03,57,16.30
2015,06,25,03,58,16.30
2015,06,25,03,59,16.30
2015,06,25,04,00,16.30
2015,06,25,04,01,16.30
2015,06,25,04,02,16.30
2015,06,25,04,03,16.30
2015,06,25,04,04,16.30
2015,06,25,04,05,16.30
2015,06,25,04,06,16.30
2015,06,25,04,07,16.30
2015,06,25,04,08,16.20
2015,06,25,04,09,16.20
2015,06,25,04,10,16.20
2015,06,25,04,11,16.20
2015,06,25,04,12,16.20
2015,06,25,04,13,16.20
2015,06,25,04,14,16.20
2015,06,25,04,15,16.20
2015,06,25,04,16,16.20
2015,06,25,04,17,16.20
2015,06,25,04,18,16.20
2015,06,25,04,19,16.20
2015,06,25,04,20,16.20
2015,06,25,04,21,16.20
2015,06,25,04,22,16.20
2015,06,25,04,23,16.20
2015,06,25,04,24,16.20
2015,06,25,04,25,16.20
2015,06,25,04,26,16.20
2015,06,25,04,27,16.20
2015,06,25,04,28,16.20
2015,06,25,04,29,16.20
2015,06,25,04,30,16.20
2015,06,25,04,31,16.20
2015,06,25,04,32,16.20
2015,06,25,04,33,16.20
2015,06,25,04,34,16.20
2015,06,25,04,35,16.20
2015,06,25,04,36,16.20
2015,06,25,04,37,16.20
2015,06,25,04,38,16.20
2015,06,25,04,39,16.20
2015,06,25,04,40,16.20
2015,06,25,04,41,16.20
2015,06,25,04,42,16.20
2015,06,25,04,43,16.20
2015,06,25,04,44,16.20
2015,06,25,04,45,16.20
2015,06,25,04,46,16.20
2015,06,25,04,47,16.20
2015,06,25,04,48,16.20
2015,06,25,04,49,16.20
2015,06,25,04,50,16.20
2015,06,25,04,51,16.10
2015,06,25,04,52,16.10
2015,06,25,04,53,16.20
2015,06,25,04,54,16.10
2015,06,25,04,55,16.10
2015,06,25,04,56,16.10
2015,06,25,04,57,16.10
2015,06,25,04,58,16.10
2015,06,25,04,59,16.10
2015,06,25,05,00,16.10
2015,06,25,05,01,16.10
2015,06,25,05,02,16.10
2015,06,25,05,03,16.10
2015,06,25,05,04,16.10
2015,06,25,05,05,16.10
2015,06,25,05,06,16.10
2015,06,25,05,07,16.10
2015,06,25,05,08,16.10
2015,06,25,05,09,16.10
2015,06,25,05,10,16.10
2015,06,25,05,11,16.10
2015,06,25,05,12,16.10
2015,06,25,05,13,16.10
2015,06,25,05,14,16.10
2015,06,25,05,15,16.10
2015,06,25,05,16,16.10
2015,06,25,05,17,16.10
2015,06,25,05,18,16.10
2015,06,25,05,19,16.10
2015,06,25,05,20,16.10
2015,06,25,05,21,16.10
2015,06,25,05,22,16.10
2015,06,25,05,23,16.10
2015,06,25,05,24,16.10
2015,06,25,05,25,16.10
2015,06,25,05,26,16.10
2015,06,25,05,27,16.10
2015,06,25,05,28,16.10
2015,06,25,05,29,16.10
2015,06,25,05,30,16.10
2015,06,25,05,31,16.10
2015,06,25,05,32,16.10
2015,06,25,05,33,16.10
2015,06,25,05,34,16.10
2015,06,25,05,35,16.20
2015,06,25,05,36,16.20
2015,06,25,05,37,16.20
2015,06,25,05,38,16.20
2015,06,25,05,39,16.20
2015,06,25,05,40,16.20
2015,06,25,05,41,16.20
2015,06,25,05,42,16.20
2015,06,25,05,43,16.20
2015,06,25,05,44,16.20
2015,06,25,05,45,16.20
2015,06,25,05,46,16.20
2015,06,25,05,47,16.20
2015,06,25,05,48,16.20
2015,06,25,05,49,16.20
2015,06,25,05,50,16.20
2015,06,25,05,51,16.20
2015,06,25,05,52,16.20
2015,06,25,05,53,16.20
2015,06,25,05,54,16.20
2015,06,25,05,55,16.20
2015,06,25,05,56,16.20
2015,06,25,05,57,16.20
2015,06,25,05,58,16.20
2015,06,25,05,59,16.20
2015,06,25,06,00,16.20
2015,06,25,06,01,16.20
2015,06,25,06,02,16.20
2015,06,25,06,03,16.20
2015,06,25,06,04,16.20
2015,06,25,06,05,16.20
2015,06,25,06,06,16.20
2015,06,25,06,07,16.20
2015,06,25,06,08,16.20
2015,06,25,06,09,16.20
2015,06,25,06,10,16.20
2015,06,25,06,11,16.20
2015,06,25,06,12,16.20
2015,06,25,06,13,16.20
2015,06,25,06,14,16.20
2015,06,25,06,15,16.20
2015,06,25,06,16,16.20
2015,06,25,06,17,16.20
2015,06,25,06,18,16.20
2015,06,25,06,19,16.20
2015,06,25,06,20,16.20
2015,06,25,06,21,16.20
2015,06,25,06,22,16.20
2015,06,25,06,23,16.20
2015,06,25,06,24,16.20
2015,06,25,06,25,16.20
2015,06,25,06,26,16.30
2015,06,25,06,27,16.30
2015,06,25,06,28,16.30
2015,06,25,06,29,16.30
2015,06,25,06,30,16.30
2015,06,25,06,31,16.30
2015,06,25,06,32,16.30
2015,06,25,06,33,16.30
2015,06,25,06,34,16.30
2015,06,25,06,35,16.30
2015,06,25,06,36,16.30
2015,06,25,06,37,16.30
2015,06,25,06,38,16.30
2015,06,25,06,39,16.30
2015,06,25,06,40,16.30
2015,06,25,06,41,16.30
2015,06,25,06,42,16.30
2015,06,25,06,43,16.30
2015,06,25,06,44,16.30
2015,06,25,06,45,16.30
2015,06,25,06,46,16.30
2015,06,25,06,47,16.40
2015,06,25,06,48,16.40
2015,06,25,06,49,16.40
2015,06,25,06,50,16.40
2015,06,25,06,51,16.40
2015,06,25,06,52,16.40
2015,06,25,06,53,16.40
2015,06,25,06,54,16.50
2015,06,25,06,55,16.50
2015,06,25,06,56,16.50
2015,06,25,06,57,16.50
2015,06,25,06,58,16.50
2015,06,25,06,59,16.60
2015,06,25,07,00,16.60
2015,06,25,07,01,16.60
2015,06,25,07,02,16.60
2015,06,25,07,03,16.60
2015,06,25,07,04,16.70
2015,06,25,07,05,16.70
2015,06,25,07,06,16.70
2015,06,25,07,07,16.70
2015,06,25,07,08,16.80
2015,06,25,07,09,16.80
2015,06,25,07,10,16.80
2015,06,25,07,11,16.80
2015,06,25,07,12,16.80
2015,06,25,07,13,16.80
2015,06,25,07,14,16.90
2015,06,25,07,15,16.90
2015,06,25,07,16,16.90
2015,06,25,07,17,16.90
2015,06,25,07,18,16.90
2015,06,25,07,19,17.00
2015,06,25,07,20,17.00
2015,06,25,07,21,17.00
2015,06,25,07,22,17.00
2015,06,25,07,23,17.00
2015,06,25,07,24,17.00
2015,06,25,07,25,17.10
2015,06,25,07,26,17.10
2015,06,25,07,27,17.10
2015,06,25,07,28,17.10
2015,06,25,07,29,17.10
2015,06,25,07,30,17.20
2015,06,25,07,31,17.20
2015,06,25,07,32,17.20
2015,06,25,07,33,17.20
2015,06,25,07,34,17.20
2015,06,25,07,35,17.20
2015,06,25,07,36,17.20
2015,06,25,07,37,17.20
2015,06,25,07,38,17.20
2015,06,25,07,39,17.20
2015,06,25,07,40,17.30
2015,06,25,07,41,17.30
2015,06,25,07,42,17.30
2015,06,25,07,43,17.30
2015,06,25,07,44,17.30
2015,06,25,07,45,17.30
2015,06,25,07,46,17.30
2015,06,25,07,47,17.30
2015,06,25,07,48,17.30
2015,06,25,07,49,17.30
2015,06,25,07,50,17.30
2015,06,25,07,51,17.30
2015,06,25,07,52,17.30
2015,06,25,07,53,17.30
2015,06,25,07,54,17.30
2015,06,25,07,55,17.30
2015,06,25,07,56,17.30
2015,06,25,07,57,17.30
2015,06,25,07,58,17.30
2015,06,25,07,59,17.30
2015,06,25,08,00,17.30
2015,06,25,08,01,17.30
2015,06,25,08,02,17.30
2015,06,25,08,03,17.30
2015,06,25,08,04,17.30
2015,06,25,08,05,17.30
2015,06,25,08,06,17.20
2015,06,25,08,07,17.30
2015,06,25,08,08,17.30
2015,06,25,08,09,17.30
2015,06,25,08,10,17.30
2015,06,25,08,11,17.30
2015,06,25,08,12,17.30
2015,06,25,08,13,17.30
2015,06,25,08,14,17.30
2015,06,25,08,15,17.30
2015,06,25,08,16,17.30
2015,06,25,08,17,17.30
2015,06,25,08,18,17.30
2015,06,25,08,19,17.40
2015,06,25,08,20,17.40
2015,06,25,08,21,17.40
2015,06,25,08,22,17.40
2015,06,25,08,23,17.40
2015,06,25,08,24,17.40
2015,06,25,08,25,17.40
2015,06,25,08,26,17.40
2015,06,25,08,27,17.40
2015,06,25,08,28,17.40
2015,06,25,08,29,17.40
2015,06,25,08,30,17.40
2015,06,25,08,31,17.40
2015,06,25,08,32,17.40
2015,06,25,08,33,17.40
2015,06,25,08,34,17.40
2015,06,25,08,35,17.40
2015,06,25,08,36,17.40
2015,06,25,08,37,17.40
2015,06,25,08,38,17.40
2015,06,25,08,39,17.40
2015,06,25,08,40,17.40
2015,06,25,08,41,17.40
2015,06,25,08,42,17.50
2015,06,25,08,43,17.50
2015,06,25,08,44,17.50
2015,06,25,08,45,17.50
2015,06,25,08,46,17.60
2015,06,25,08,47,17.60
2015,06,25,08,48,17.60
2015,06,25,08,49,17.60
2015,06,25,08,50,17.70
2015,06,25,08,51,17.70
2015,06,25,08,52,17.70
2015,06,25,08,53,17.70
2015,06,25,08,54,17.70
2015,06,25,08,55,17.70
2015,06,25,08,56,17.70
2015,06,25,08,57,17.80
2015,06,25,08,58,17.80
2015,06,25,08,59,17.80
2015,06,25,09,00,17.80
2015,06,25,09,01,17.80
2015,06,25,09,02,17.80
2015,06,25,09,03,17.80
2015,06,25,09,04,17.80
2015,06,25,09,05,17.90
2015,06,25,09,06,17.90
2015,06,25,09,07,17.90
2015,06,25,09,08,17.90
2015,06,25,09,09,17.90
2015,06,25,09,10,17.90
2015,06,25,09,11,17.90
2015,06,25,09,12,17.90
2015,06,25,09,13,17.90
2015,06,25,09,14,17.90
2015,06,25,09,15,17.90
2015,06,25,09,16,17.90
2015,06,25,09,17,18.00
2015,06,25,09,18,18.00
2015,06,25,09,19,18.00
2015,06,25,09,20,18.00
2015,06,25,09,21,18.00
2015,06,25,09,22,18.10
2015,06,25,09,23,18.10
2015,06,25,09,24,18.10
2015,06,25,09,25,18.10
2015,06,25,09,26,18.10
2015,06,25,09,27,18.10
2015,06,25,09,28,18.10
2015,06,25,09,29,18.20
2015,06,25,09,30,18.20
2015,06,25,09,31,18.20
2015,06,25,09,32,18.20
2015,06,25,09,33,18.20
2015,06,25,09,34,18.20
2015,06,25,09,35,18.20
2015,06,25,09,36,18.20
2015,06,25,09,37,18.20
2015,06,25,09,38,18.20
2015,06,25,09,39,18.20
2015,06,25,09,40,18.20
2015,06,25,09,41,18.20
2015,06,25,09,42,18.30
2015,06,25,09,43,18.20
2015,06,25,09,44,18.30
2015,06,25,09,45,18.30
2015,06,25,09,46,18.30
2015,06,25,09,47,18.30
2015,06,25,09,48,18.30
2015,06,25,09,49,18.30
2015,06,25,09,50,18.30
2015,06,25,09,51,18.40
2015,06,25,09,52,18.40
2015,06,25,09,53,18.40
2015,06,25,09,54,18.40
2015,06,25,09,55,18.40
2015,06,25,09,56,18.50
2015,06,25,09,57,18.50
2015,06,25,09,58,18.50
2015,06,25,09,59,18.50
2015,06,25,10,00,18.60
2015,06,25,10,01,18.60
2015,06,25,10,02,18.60
2015,06,25,10,03,18.60
2015,06,25,10,04,18.60
2015,06,25,10,05,18.70
2015,06,25,10,06,18.70
2015,06,25,10,07,18.70
2015,06,25,10,08,18.70
2015,06,25,10,09,18.70
2015,06,25,10,10,18.70
2015,06,25,10,11,18.70
2015,06,25,10,12,18.80
2015,06,25,10,13,18.80
2015,06,25,10,14,18.80
2015,06,25,10,15,18.80
2015,06,25,10,16,18.80
2015,06,25,10,17,18.80
2015,06,25,10,18,18.80
2015,06,25,10,19,18.80
2015,06,25,10,20,18.80
2015,06,25,10,21,18.90
2015,06,25,10,22,18.90
2015,06,25,10,23,18.90
2015,06,25,10,24,18.90
2015,06,25,10,25,18.90
2015,06,25,10,26,18.90
2015,06,25,10,27,18.90
2015,06,25,10,28,18.90
2015,06,25,10,29,18.90
2015,06,25,10,30,18.90
2015,06,25,10,31,18.90
2015,06,25,10,32,18.90
2015,06,25,10,33,18.90
2015,06,25,10,34,18.90
2015,06,25,10,35,19.00
2015,06,25,10,36,19.00
2015,06,25,10,37,19.00
2015,06,25,10,38,19.00
2015,06,25,10,39,19.10
2015,06,25,10,40,19.10
2015,06,25,10,41,19.10
2015,06,25,10,42,19.10
2015,06,25,10,43,19.10
2015,06,25,10,44,19.20
2015,06,25,10,45,19.20
2015,06,25,10,46,19.20
2015,06,25,10,47,19.20
2015,06,25,10,48,19.20
2015,06,25,10,49,19.20
2015,06,25,10,50,19.20
2015,06,25,10,51,19.20
2015,06,25,10,52,19.30
2015,06,25,10,53,19.30
2015,06,25,10,54,19.30
2015,06,25,10,55,19.40
2015,06,25,10,56,19.40
2015,06,25,10,57,19.50
2015,06,25,10,58,19.50
2015,06,25,10,59,19.50
2015,06,25,11,00,19.60
2015,06,25,11,01,19.60
2015,06,25,11,02,19.60
2015,06,25,11,03,19.70
2015,06,25,11,04,19.70
2015,06,25,11,05,19.70
2015,06,25,11,06,19.70
2015,06,25,11,07,19.70
2015,06,25,11,08,19.80
2015,06,25,11,09,19.80
2015,06,25,11,10,19.80
2015,06,25,11,11,19.80
2015,06,25,11,12,19.90
2015,06,25,11,13,19.90
2015,06,25,11,14,19.90
2015,06,25,11,15,19.90
2015,06,25,11,16,19.90
2015,06,25,11,17,19.90
2015,06,25,11,18,19.90
2015,06,25,11,19,19.80
2015,06,25,11,20,19.80
2015,06,25,11,21,19.80
2015,06,25,11,22,19.70
2015,06,25,11,23,19.70
2015,06,25,11,24,19.70
2015,06,25,11,25,19.70
2015,06,25,11,26,19.70
2015,06,25,11,27,19.70
2015,06,25,11,28,19.70
2015,06,25,11,29,19.60
2015,06,25,11,30,19.50
2015,06,25,11,31,19.40
2015,06,25,11,32,19.30
2015,06,25,11,33,19.20
2015,06,25,11,34,19.10
2015,06,25,11,35,19.10
2015,06,25,11,36,19.00
2015,06,25,11,37,19.00
2015,06,25,11,38,19.00
2015,06,25,11,39,19.00
2015,06,25,11,40,18.90
2015,06,25,11,41,18.90
2015,06,25,11,42,18.90
2015,06,25,11,43,18.90
2015,06,25,11,44,18.80
2015,06,25,11,45,18.80
2015,06,25,11,46,18.80
2015,06,25,11,47,18.90
2015,06,25,11,48,18.90
2015,06,25,11,49,18.90
2015,06,25,11,50,18.90
2015,06,25,11,51,18.90
2015,06,25,11,52,18.80
2015,06,25,11,53,18.80
2015,06,25,11,54,18.80
2015,06,25,11,55,18.80
2015,06,25,11,56,18.80
2015,06,25,11,57,18.80
2015,06,25,11,58,18.80
2015,06,25,11,59,18.90
2015,06,25,12,00,18.90
2015,06,25,12,01,18.90
2015,06,25,12,02,18.90
2015,06,25,12,03,19.00
2015,06,25,12,04,19.00
2015,06,25,12,05,19.00
2015,06,25,12,06,19.10
2015,06,25,12,07,19.10
2015,06,25,12,08,19.10
2015,06,25,12,09,19.10
2015,06,25,12,10,19.10
2015,06,25,12,11,19.10
2015,06,25,12,12,19.10
2015,06,25,12,13,19.10
2015,06,25,12,14,19.10
2015,06,25,12,15,19.10
2015,06,25,12,16,19.20
2015,06,25,12,17,19.20
2015,06,25,12,18,19.20
2015,06,25,12,19,19.20
2015,06,25,12,20,19.20
2015,06,25,12,21,19.20
2015,06,25,12,22,19.20
2015,06,25,12,23,19.20
2015,06,25,12,24,19.30
2015,06,25,12,25,19.30
2015,06,25,12,26,19.30
2015,06,25,12,27,19.30
2015,06,25,12,28,19.40
2015,06,25,12,29,19.50
2015,06,25,12,30,19.50
2015,06,25,12,31,19.60
2015,06,25,12,32,19.60
2015,06,25,12,33,19.70
2015,06,25,12,34,19.70
2015,06,25,12,35,19.80
2015,06,25,12,36,19.90
2015,06,25,12,37,19.90
2015,06,25,12,38,19.90
2015,06,25,12,39,20.00
2015,06,25,12,40,20.10
2015,06,25,12,41,20.10
2015,06,25,12,42,20.10
2015,06,25,12,43,20.10
2015,06,25,12,44,20.20
2015,06,25,12,45,20.20
2015,06,25,12,46,20.20
2015,06,25,12,47,20.10
2015,06,25,12,48,20.00
2015,06,25,12,49,19.90
2015,06,25,12,50,19.80
2015,06,25,12,51,19.70
2015,06,25,12,52,19.70
2015,06,25,12,53,19.70
2015,06,25,12,54,19.70
2015,06,25,12,55,19.70
2015,06,25,12,56,19.70
2015,06,25,12,57,19.70
2015,06,25,12,58,19.70
2015,06,25,12,59,19.70
2015,06,25,13,00,19.80
2015,06,25,13,01,19.80
2015,06,25,13,02,19.90
2015,06,25,13,03,20.00
2015,06,25,13,04,20.10
2015,06,25,13,05,20.10
2015,06,25,13,06,20.10
2015,06,25,13,07,20.20
2015,06,25,13,08,20.20
2015,06,25,13,09,20.30
2015,06,25,13,10,20.40
2015,06,25,13,11,20.40
2015,06,25,13,12,20.50
2015,06,25,13,13,20.60
2015,06,25,13,14,20.70
2015,06,25,13,15,20.80
2015,06,25,13,16,20.90
2015,06,25,13,17,21.00
2015,06,25,13,18,21.10
2015,06,25,13,19,21.20
2015,06,25,13,20,21.30
2015,06,25,13,21,21.40
2015,06,25,13,22,21.60
2015,06,25,13,23,21.60
2015,06,25,13,24,21.70
2015,06,25,13,25,21.70
2015,06,25,13,26,21.80
2015,06,25,13,27,21.90
2015,06,25,13,28,22.00
2015,06,25,13,29,22.10
2015,06,25,13,30,22.20
2015,06,25,13,31,22.20
2015,06,25,13,32,22.20
2015,06,25,13,33,22.20
2015,06,25,13,34,22.30
2015,06,25,13,35,22.40
2015,06,25,13,36,22.40
2015,06,25,13,37,22.50
2015,06,25,13,38,22.50
2015,06,25,13,39,22.50
2015,06,25,13,40,22.50
2015,06,25,13,41,22.40
2015,06,25,13,42,22.40
2015,06,25,13,43,22.50
2015,06,25,13,44,22.50
2015,06,25,13,45,22.50
2015,06,25,13,46,22.60
2015,06,25,13,47,22.60
2015,06,25,13,48,22.60
2015,06,25,13,49,22.60
2015,06,25,13,50,22.50
2015,06,25,13,51,22.50
2015,06,25,13,52,22.50
2015,06,25,13,53,22.40
2015,06,25,13,54,22.50
2015,06,25,13,55,22.50
2015,06,25,13,56,22.60
2015,06,25,13,57,22.60
2015,06,25,13,58,22.60
2015,06,25,13,59,22.60
2015,06,25,14,00,22.60
2015,06,25,14,01,22.60
2015,06,25,14,02,22.60
2015,06,25,14,03,22.60
2015,06,25,14,04,22.70
2015,06,25,14,05,22.70
2015,06,25,14,06,22.70
2015,06,25,14,07,22.70
2015,06,25,14,08,22.70
2015,06,25,14,09,22.70
2015,06,25,14,10,22.70
2015,06,25,14,11,22.70
2015,06,25,14,12,22.70
2015,06,25,14,13,22.70
2015,06,25,14,14,22.70
2015,06,25,14,15,22.70
2015,06,25,14,16,22.70
2015,06,25,14,17,22.80
2015,06,25,14,18,22.80
2015,06,25,14,19,22.80
2015,06,25,14,20,22.90
2015,06,25,14,21,22.90
2015,06,25,14,22,23.00
2015,06,25,14,23,23.10
2015,06,25,14,24,23.10
2015,06,25,14,25,23.10
2015,06,25,14,26,23.10
2015,06,25,14,27,23.00
2015,06,25,14,28,23.10
2015,06,25,14,29,23.10
2015,06,25,14,30,23.10
2015,06,25,14,31,23.20
2015,06,25,14,32,23.30
2015,06,25,14,33,23.30
2015,06,25,14,34,23.30
2015,06,25,14,35,23.40
2015,06,25,14,36,23.40
2015,06,25,14,37,23.40
2015,06,25,14,38,23.30
2015,06,25,14,39,23.30
2015,06,25,14,40,23.20
2015,06,25,14,41,23.00
2015,06,25,14,42,22.90
2015,06,25,14,43,22.80
2015,06,25,14,44,22.70
2015,06,25,14,45,22.60
2015,06,25,14,46,22.60
2015,06,25,14,47,22.50
2015,06,25,14,48,22.40
2015,06,25,14,49,22.30
2015,06,25,14,50,22.20
2015,06,25,14,51,22.20
2015,06,25,14,52,22.20
2015,06,25,14,53,22.20
2015,06,25,14,54,22.20
2015,06,25,14,55,22.30
2015,06,25,14,56,22.30
2015,06,25,14,57,22.30
2015,06,25,14,58,22.30
2015,06,25,14,59,22.20
2015,06,25,15,00,22.20
2015,06,25,15,01,22.20
2015,06,25,15,02,22.20
2015,06,25,15,03,22.20
2015,06,25,15,04,22.10
2015,06,25,15,05,22.00
2015,06,25,15,06,22.00
2015,06,25,15,07,22.00
2015,06,25,15,08,22.00
2015,06,25,15,09,22.00
2015,06,25,15,10,22.00
2015,06,25,15,11,21.90
2015,06,25,15,12,22.00
2015,06,25,15,13,22.00
2015,06,25,15,14,22.10
2015,06,25,15,15,22.20
2015,06,25,15,16,22.30
2015,06,25,15,17,22.40
2015,06,25,15,18,22.40
2015,06,25,15,19,22.50
2015,06,25,15,20,22.60
2015,06,25,15,21,22.70
2015,06,25,15,22,22.70
2015,06,25,15,23,22.70
2015,06,25,15,24,22.80
2015,06,25,15,25,22.80
2015,06,25,15,26,22.80
2015,06,25,15,27,22.80
2015,06,25,15,28,22.70
2015,06,25,15,29,22.60
2015,06,25,15,30,22.60
2015,06,25,15,31,22.60
2015,06,25,15,32,22.70
2015,06,25,15,33,22.80
2015,06,25,15,34,22.90
2015,06,25,15,35,23.10
2015,06,25,15,36,23.20
2015,06,25,15,37,23.30
2015,06,25,15,38,23.30
2015,06,25,15,39,23.40
2015,06,25,15,40,23.40
2015,06,25,15,41,23.50
2015,06,25,15,42,23.50
2015,06,25,15,43,23.60
2015,06,25,15,44,23.70
2015,06,25,15,45,23.80
2015,06,25,15,46,23.80
2015,06,25,15,47,23.80
2015,06,25,15,48,23.80
2015,06,25,15,49,23.80
2015,06,25,15,50,23.80
2015,06,25,15,51,23.70
2015,06,25,15,52,23.60
2015,06,25,15,53,23.50
2015,06,25,15,54,23.40
2015,06,25,15,55,23.40
2015,06,25,15,56,23.40
2015,06,25,15,57,23.50
2015,06,25,15,58,23.60
2015,06,25,15,59,23.70
2015,06,25,16,00,23.70
2015,06,25,16,01,23.80
2015,06,25,16,02,23.80
2015,06,25,16,03,23.90
2015,06,25,16,04,23.90
2015,06,25,16,05,24.00
2015,06,25,16,06,24.00
2015,06,25,16,07,24.10
2015,06,25,16,08,24.10
2015,06,25,16,09,24.10
2015,06,25,16,10,24.10
2015,06,25,16,11,24.10
2015,06,25,16,12,24.10
2015,06,25,16,13,24.20
2015,06,25,16,14,24.20
2015,06,25,16,15,24.30
2015,06,25,16,16,24.30
2015,06,25,16,17,24.40
2015,06,25,16,18,24.40
2015,06,25,16,19,24.50
2015,06,25,16,20,24.50
2015,06,25,16,21,24.50
2015,06,25,16,22,24.50
2015,06,25,16,23,24.50
2015,06,25,16,24,24.50
2015,06,25,16,25,24.60
2015,06,25,16,26,24.60
2015,06,25,16,27,24.60
2015,06,25,16,28,24.60
2015,06,25,16,29,24.60
2015,06,25,16,30,24.50
2015,06,25,16,31,24.50
2015,06,25,16,32,24.40
2015,06,25,16,33,24.30
2015,06,25,16,34,24.20
2015,06,25,16,35,24.10
2015,06,25,16,36,24.00
2015,06,25,16,37,23.90
2015,06,25,16,38,23.90
2015,06,25,16,39,23.80
2015,06,25,16,40,23.90
2015,06,25,16,41,23.90
2015,06,25,16,42,24.00
2015,06,25,16,43,24.10
2015,06,25,16,44,24.20
2015,06,25,16,45,24.30
2015,06,25,16,46,24.40
2015,06,25,16,47,24.60
2015,06,25,16,48,24.70
2015,06,25,16,49,24.80
2015,06,25,16,50,24.90
2015,06,25,16,51,24.90
2015,06,25,16,52,25.00
2015,06,25,16,53,25.10
2015,06,25,16,54,25.10
2015,06,25,16,55,25.00
2015,06,25,16,56,24.80
2015,06,25,16,57,24.70
2015,06,25,16,58,24.50
2015,06,25,16,59,24.30
2015,06,25,17,00,24.10
2015,06,25,17,01,24.00
2015,06,25,17,02,24.00
2015,06,25,17,03,24.10
2015,06,25,17,04,24.20
2015,06,25,17,05,24.30
2015,06,25,17,06,24.30
2015,06,25,17,07,24.40
2015,06,25,17,08,24.40
2015,06,25,17,09,24.50
2015,06,25,17,10,24.60
2015,06,25,17,11,24.60
2015,06,25,17,12,24.70
2015,06,25,17,13,24.70
2015,06,25,17,14,24.70
2015,06,25,17,15,24.70
2015,06,25,17,16,24.70
2015,06,25,17,17,24.70
2015,06,25,17,18,24.70
2015,06,25,17,19,24.70